Location: Stockholm
(59.3330°N, 18.0500°E)
Time: 04:25:02
(UTC+02:00)

NOAA 18 - Pass Details

Date: 07 April 2023
Orbit: 838 x 860 km, 98.9° (Epoch: 31 May)

Event Time Altitude Azimuth Distance (km) Brightness Sun altitude
Exits shadow 23:34:24 19° 223° (SW) 1,945 6.8 -22.0°
Maximum altitude 23:37:20 29° 268° (W) 1,520 6.7 -22.1°
Drops below altitude 10° 23:42:10 10° 328° (NNW) 2,509 8.7 -22.3°
Sets 23:44:53 0° 340° (NNW) 3,448 9.9 -22.4°
